Theta_e
309 309 308 307 308 307 307 308 307 306 303 301 300 299 298 298 299 300 300 301 301 303 305 306 305 305 309 313 313 319 323 317 320 332 331 332 335 324 324 325 329 334 332 330 335 354 355
307 307 307 308 307 307 307 307 306 303 300 299 299 298 297 297 298 299 300 301 303 305 307 309 309 307 311 311 312 312 313 314 319 332 328 325 327 324 323 325 329 329 332 342 347 356 355
308 307 307 307 307 307 307 307 305 302 300 299 298 297 297 297 298 298 300 303 304 308 314 314 312 310 315 312 313 313 317 318 318 327 323 326 323 324 323 326 327 327 344 346 352 357 357
307 307 307 307 307 306 304 303 300 299 298 297 297 298 298 298 298 299 302 303 307 314 311 313 314 316 310 310 311 312 315 320 326 323 322 323 324 324 324 324 325 326 343 347 350 356 356
307 306 306 306 306 306 303 301 299 299 298 298 299 300 300 299 298 299 303 305 317 314 314 314 315 318 313 313 315 313 313 314 322 321 319 323 323 324 323 324 329 325 342 346 348 354 357
306 306 306 306 306 306 304 302 300 299 299 300 301 301 301 300 299 302 303 311 317 320 318 319 319 317 314 316 317 317 313 313 314 315 318 324 324 325 324 324 334 330 334 345 346 349 354
306 306 306 306 305 305 304 303 300 301 302 301 301 301 301 301 300 301 308 307 307 309 306 315 316 315 316 316 316 317 313 313 318 319 324 325 328 324 323 323 330 329 333 341 343 342 352
305 305 305 305 305 305 302 301 302 302 302 302 302 302 301 300 301 301 306 305 302 302 306 308 308 310 312 315 315 317 314 316 319 318 324 324 328 326 323 324 325 327 330 337 341 340 346
305 305 305 305 305 304 301 302 302 302 302 302 302 302 302 301 300 303 304 302 301 303 308 311 310 311 312 312 316 317 316 317 318 319 324 326 326 327 324 324 326 326 329 330 338 341 342
306 306 305 305 305 302 302 301 301 301 301 301 301 302 303 301 302 304 302 302 303 303 312 313 312 313 312 314 316 317 316 318 318 318 323 325 325 327 325 324 327 330 324 328 340 343 344
305 305 305 305 305 304 301 300 300 300 301 301 302 303 303 300 303 305 304 304 304 303 311 315 314 312 315 316 318 317 317 318 319 321 323 324 326 326 326 325 325 328 325 327 337 338 342
304 304 305 304 305 303 301 301 301 301 302 302 303 303 302 300 303 304 304 304 304 311 312 315 314 313 316 317 318 318 319 320 320 322 322 324 323 326 326 325 324 323 325 327 330 330 336
304 304 304 304 304 303 303 302 302 303 304 304 304 303 301 301 304 304 303 305 308 308 312 313 312 311 312 314 318 320 320 322 321 323 324 323 325 325 326 326 324 325 328 331 332 331 338
304 304 304 304 304 303 303 304 304 304 305 304 304 303 301 303 303 304 303 305 304 307 308 311 311 311 313 314 317 319 322 322 322 322 323 323 323 324 326 327 326 326 328 334 337 335 334
304 304 304 304 304 304 303 304 305 305 305 304 304 303 300 302 305 303 306 302 302 307 310 310 310 312 313 312 311 316 322 322 323 322 323 323 322 322 323 326 326 326 326 328 332 328 334
304 305 304 304 304 304 304 305 305 305 304 303 303 299 299 303 303 303 305 303 303 306 310 309 308 311 312 311 311 312 322 322 322 322 322 324 323 323 323 324 324 325 326 326 326 336 336
304 305 304 304 304 304 304 304 305 304 302 302 301 303 301 303 303 306 305 306 308 308 309 309 310 311 311 310 310 311 316 320 322 321 321 323 323 324 325 325 326 323 325 325 328 331 336
305 304 304 304 304 304 304 304 305 304 302 303 301 301 301 302 307 306 310 307 308 310 310 309 309 309 309 310 311 311 312 320 316 322 321 323 324 325 325 325 325 325 325 326 329 332 330
304 304 304 304 304 304 304 303 304 304 302 303 302 301 301 302 304 303 304 307 307 309 310 311 310 309 310 312 312 311 311 313 314 317 324 323 324 326 325 324 322 325 323 324 328 330 333
303 303 304 303 303 304 304 304 304 304 302 303 303 304 303 303 303 303 303 305 309 309 310 310 310 310 311 312 312 311 312 311 312 317 323 325 324 325 325 325 325 325 324 322 325 330 333
303 303 303 304 304 303 304 304 305 304 302 302 301 302 303 303 302 303 303 304 308 312 309 308 310 309 309 312 313 313 312 312 314 316 318 322 325 325 324 324 325 325 323 322 324 325 329
301 303 304 304 304 303 304 304 305 305 303 302 303 304 302 301 302 303 303 307 309 307 308 311 310 310 308 311 312 313 312 313 315 314 317 320 327 325 325 323 325 325 325 324 324 325 325
302 302 303 304 304 305 304 304 304 305 304 302 301 301 303 301 302 303 304 304 304 305 306 308 308 308 308 309 307 308 308 310 312 312 314 319 326 327 326 324 325 326 326 326 325 325 325
302 303 304 304 304 304 305 304 304 305 305 303 302 301 302 302 302 303 302 303 304 304 308 307 307 307 307 306 307 308 307 309 310 311 310 316 324 327 327 326 327 326 325 325 325 326 324
304 304 304 304 304 304 304 304 305 304 305 305 302 301 302 303 302 302 303 303 304 304 307 306 307 306 304 307 311 314 316 316 316 313 312 311 319 329 327 326 326 326 331 327 328 337 340
305 305 304 304 305 304 304 305 305 304 305 305 305 302 301 303 303 303 303 304 304 304 305 305 304 303 305 312 310 317 322 320 322 319 313 312 316 324 327 327 327 331 324 324 330 336 333
305 305 305 304 304 304 304 304 304 305 305 305 305 304 302 303 302 302 304 304 303 304 304 304 304 305 305 312 315 318 317 320 321 323 322 321 322 324 328 329 332 321 322 323 335 334 326
304 304 304 305 305 305 304 304 304 304 304 306 304 303 301 303 302 302 302 303 303 304 305 304 305 304 306 310 312 315 318 318 323 320 323 324 326 326 328 335 337 318 320 331 322 321 321
304 304 304 304 305 305 305 304 305 304 304 305 304 302 301 302 302 301 301 301 302 303 303 304 305 304 305 306 307 311 315 314 319 324 316 322 318 327 330 327 317 316 315 314 315 317 319
Wind_Speed
22 22 22 22 23 24 25 26 27 28 31 32 34 36 37 38 37 36 35 32 33 29 25 22 18 13 3 2 9 7 9 2 13 19 14 10 12 6 5 4 4 8 7 6 12 12 11
21 21 21 22 23 24 25 26 27 30 32 34 36 37 39 40 40 39 37 37 29 28 26 21 15 4 3 7 8 10 16 12 13 20 14 9 9 6 3 4 5 1 5 3 11 11 12
21 21 22 23 23 24 25 26 27 29 32 35 37 39 42 42 42 43 38 29 33 24 16 13 11 8 4 15 6 9 7 9 15 21 12 17 4 4 3 4 4 1 3 8 11 14 6
21 22 22 23 24 25 26 28 30 31 33 36 40 42 44 45 44 43 32 34 22 13 12 6 13 7 8 8 14 21 7 4 9 13 1 10 6 3 3 5 2 3 3 5 8 14 9
22 22 22 23 24 25 27 29 31 33 36 38 41 43 44 45 45 39 31 23 7 13 17 16 7 3 8 4 5 14 21 17 9 6 3 6 6 3 3 5 3 2 5 6 9 14 8
20 21 22 23 24 26 28 29 32 35 38 39 41 42 43 44 44 28 30 6 2 5 4 3 3 3 6 1 3 4 13 17 6 11 5 4 3 5 4 9 11 11 6 9 9 13 12
21 22 23 24 25 26 27 29 32 34 37 39 40 41 43 43 40 26 22 3 4 1 5 6 6 8 8 11 2 5 8 15 9 10 11 9 9 15 18 19 5 10 9 14 10 11 15
20 20 21 22 23 25 28 31 33 35 37 39 40 43 44 41 31 22 11 6 6 5 12 13 20 17 28 11 6 3 17 10 13 14 12 7 18 18 9 10 10 9 10 11 7 11 13
20 21 22 22 23 26 29 32 34 37 38 39 40 41 45 41 15 20 10 8 14 4 6 10 8 8 8 16 11 9 14 8 18 18 23 18 12 15 12 12 13 11 13 9 11 8 3
21 21 22 23 25 28 30 32 34 37 39 40 40 41 44 37 5 20 2 21 24 3 5 6 4 4 5 8 10 21 22 8 7 23 21 14 10 20 16 20 17 17 10 8 11 13 11
20 21 22 24 25 27 31 33 34 36 38 39 40 41 40 20 10 6 16 27 19 4 6 4 2 1 4 10 2 14 22 9 15 14 12 16 19 15 21 25 20 14 12 11 7 7 6
20 21 23 24 25 28 30 31 33 35 37 38 39 41 34 10 9 17 28 21 1 2 8 6 5 6 2 11 4 4 15 9 5 9 14 13 4 17 19 16 18 13 11 6 4 4 9
21 22 22 23 26 28 29 30 33 34 36 38 40 41 19 7 8 25 22 3 3 5 8 7 9 12 13 7 8 7 19 22 16 16 16 14 12 10 16 16 15 11 16 7 7 7 9
22 22 23 24 25 27 28 29 31 33 36 39 40 34 7 10 24 17 7 1 7 5 10 8 11 18 8 6 7 12 15 24 21 15 16 18 17 15 17 16 15 22 19 10 11 9 11
21 22 22 24 25 26 27 27 29 32 35 37 38 27 3 19 20 6 2 4 5 6 3 8 13 9 5 4 7 6 16 25 25 23 14 16 15 19 9 11 17 22 11 8 7 2 9
22 22 22 23 24 24 25 27 29 31 33 32 26 11 5 30 10 2 3 5 5 3 4 2 8 3 6 11 8 9 12 16 27 25 15 11 10 13 24 16 13 15 18 11 4 11 12
22 22 22 23 24 22 24 26 28 29 30 26 8 4 8 26 3 0 4 4 6 9 8 4 5 5 5 10 9 6 3 5 24 21 17 13 11 11 20 18 20 9 15 7 11 7 13
21 21 22 23 24 22 22 24 26 26 28 16 6 4 14 22 1 2 2 6 7 10 9 11 9 10 11 10 8 5 5 5 13 7 18 13 8 9 16 23 14 18 15 20 12 9 7
21 21 22 23 22 21 22 21 22 24 22 8 4 3 8 9 3 5 8 9 7 6 6 5 5 4 2 4 5 8 5 4 11 9 11 14 9 9 10 8 9 24 14 11 10 9 16
22 21 22 22 21 20 21 20 19 20 19 10 3 4 3 4 2 7 10 10 6 6 13 7 7 3 2 6 9 9 8 7 15 8 11 3 9 19 13 17 11 21 21 13 15 12 15
23 22 21 22 21 18 20 19 17 17 17 6 2 2 2 4 4 12 7 9 10 4 6 4 3 8 5 3 3 5 5 8 6 9 5 3 18 12 14 7 17 17 21 19 20 17 15
24 23 22 21 21 19 19 18 16 14 13 2 2 2 0 6 7 8 7 3 5 6 3 5 7 16 11 3 2 4 8 3 3 9 7 6 8 17 17 14 13 17 18 21 22 21 20
26 24 22 22 21 21 19 18 16 13 8 1 1 1 1 6 5 5 4 7 11 15 5 7 12 17 9 2 12 16 14 16 14 7 5 6 2 12 20 14 17 16 17 18 17 17 19
26 25 23 22 21 21 20 18 17 14 9 6 3 2 2 4 4 7 11 14 12 13 5 10 11 13 7 21 20 9 8 14 13 13 10 6 4 3 12 12 19 13 18 14 14 8 12
26 24 23 22 21 20 19 18 18 15 12 13 8 4 2 5 6 12 6 7 12 11 4 7 16 12 18 11 4 3 3 4 9 8 11 12 3 3 6 16 3 6 5 6 12 6 6
26 24 23 22 20 20 19 18 17 16 13 12 17 14 3 3 3 7 7 9 5 5 5 7 15 17 6 3 3 2 3 1 5 6 5 6 4 4 4 17 14 6 11 7 3 10 9
25 24 22 21 20 19 19 17 17 16 13 11 9 15 4 3 5 5 5 3 4 4 5 8 9 6 7 4 1 3 2 5 0 2 3 5 3 5 3 5 5 12 9 4 11 3 10
23 22 20 19 19 18 17 16 15 15 13 9 8 18 11 3 8 8 7 10 7 4 3 6 5 3 5 6 4 3 3 5 2 5 3 1 2 2 1 3 5 17 3 2 6 7 9
22 20 19 18 17 16 15 15 14 12 12 9 6 15 20 5 5 5 16 20 15 11 7 2 5 4 4 4 4 3 3 4 5 2 5 1 4 2 5 5 7 9 13 8 7 9 12
Wind_Direction
24 22 19 16 14 13 11 9 7 7 8 5 3 1 358 354 352 348 342 337 329 323 315 308 301 303 339 227 246 217 195 71 160 179 176 185 173 174 209 208 187 237 288 289 229 167 157
21 20 17 14 12 11 10 7 6 7 7 4 2 1 357 355 352 347 341 336 331 322 311 296 281 264 155 248 246 228 246 239 197 189 191 179 198 216 245 235 227 155 307 5 153 149 143
20 18 16 13 11 9 7 5 4 5 4 3 1 0 356 354 351 346 341 341 327 323 315 295 231 169 210 242 207 177 150 203 200 184 182 198 205 211 178 253 282 301 143 96 149 145 135
19 17 14 11 9 7 7 6 5 5 4 2 0 359 356 353 351 345 345 341 333 343 324 284 165 160 246 265 233 227 185 122 172 180 161 201 190 257 247 305 245 190 187 177 171 171 154
17 15 12 8 7 5 5 5 3 3 4 2 359 358 354 351 350 344 345 342 28 46 62 104 123 202 257 280 224 235 218 215 155 162 114 124 161 196 190 226 187 203 195 187 164 195 157
15 12 9 6 4 3 3 1 1 1 1 360 358 356 352 351 348 353 344 2 38 28 44 19 94 255 243 228 235 184 191 166 163 183 197 184 145 194 184 194 193 188 200 202 185 191 195
12 9 6 3 1 360 359 359 0 360 359 357 356 355 351 349 347 6 359 11 342 202 0 272 287 277 285 323 278 201 152 170 138 168 172 186 190 202 196 201 236 191 200 203 195 177 193
8 6 2 0 358 357 359 360 1 359 357 356 355 354 350 348 345 1 31 77 80 293 299 263 245 253 255 273 307 211 153 158 179 182 155 158 212 207 216 213 224 195 187 209 202 165 204
3 2 360 358 356 357 359 359 359 357 355 353 352 352 350 348 346 358 52 88 344 317 255 286 226 230 222 191 219 230 186 166 186 179 189 198 206 198 207 204 205 202 197 184 214 154 179
359 357 356 355 354 357 356 355 355 354 352 351 349 350 348 349 15 343 86 334 331 247 285 272 233 256 174 173 229 209 193 171 181 196 186 211 186 188 195 212 203 207 194 175 167 180 215
355 353 353 354 352 353 355 354 353 352 351 348 347 347 344 346 322 341 314 323 325 196 302 44 128 102 164 206 11 195 184 190 188 171 182 191 191 184 197 205 196 216 167 180 166 162 184
353 353 351 351 351 352 353 352 351 351 350 347 344 344 340 337 328 328 328 329 176 192 249 319 22 13 345 232 266 121 183 194 159 160 205 189 207 183 203 203 195 140 124 87 88 189 222
349 349 348 348 350 349 350 350 351 350 349 345 342 342 341 350 336 325 329 347 223 208 319 337 337 336 319 261 224 206 188 183 176 175 186 190 177 189 186 188 197 193 168 163 199 207 223
343 344 344 345 346 346 349 350 350 348 346 343 341 343 352 4 337 334 329 169 236 214 233 332 334 317 278 338 234 203 198 195 196 188 171 186 203 183 189 198 185 200 191 193 194 198 209
338 341 342 340 340 344 349 351 350 347 345 343 339 343 29 349 341 340 286 232 235 224 284 320 334 307 295 342 356 283 210 208 194 184 172 188 209 194 182 186 180 187 205 198 195 49 208
336 338 338 337 337 341 347 349 350 346 346 344 333 329 312 352 357 356 217 251 266 283 344 326 264 331 318 336 321 337 194 208 202 201 194 187 195 197 192 190 192 196 180 185 222 194 213
335 336 334 333 335 338 342 349 350 348 347 345 350 332 355 353 5 44 261 284 306 310 307 274 236 279 273 317 320 300 307 20 198 195 208 168 211 166 185 199 183 167 191 215 197 226 212
331 331 329 332 332 335 340 345 348 350 348 360 357 318 354 349 296 45 314 318 314 292 295 261 252 255 271 290 291 285 313 12 358 274 203 184 191 198 192 197 210 200 192 194 196 187 225
327 327 329 329 330 336 340 340 348 351 353 342 337 285 338 348 34 360 327 299 265 282 312 298 270 240 219 251 284 274 280 330 6 355 214 187 204 174 184 181 201 204 187 192 210 179 201
326 329 324 324 327 334 332 335 341 349 350 351 329 326 335 24 24 359 332 302 298 294 279 278 292 324 301 242 236 274 299 315 334 334 321 256 194 211 204 204 171 197 196 203 200 204 194
323 321 321 319 319 320 324 328 332 340 345 349 4 11 34 313 331 324 296 279 282 294 294 298 204 22 332 256 257 254 314 312 292 1 348 264 209 199 205 170 189 182 194 199 213 219 214
318 316 314 312 313 317 318 322 331 325 339 340 316 326 359 295 299 302 299 309 308 347 290 314 349 331 328 255 48 322 345 281 339 328 351 356 202 203 215 197 196 202 196 196 209 213 227
315 312 309 308 310 310 310 313 318 319 324 303 228 256 267 288 291 296 294 331 314 319 276 261 318 323 307 42 316 288 274 265 272 303 315 346 198 183 214 199 216 229 201 198 202 209 208
315 311 308 305 303 304 305 307 309 316 290 235 229 242 253 287 271 287 295 311 308 335 267 297 308 303 306 321 301 261 236 244 251 243 241 304 323 215 191 180 220 232 227 210 209 202 217
315 311 308 301 300 300 300 301 303 302 298 239 216 180 223 276 273 283 266 316 300 307 271 295 302 302 308 299 277 258 179 211 233 220 215 221 297 174 183 195 151 113 43 214 189 161 30
314 311 307 303 300 296 294 296 294 297 294 279 233 207 213 281 264 274 299 305 304 325 346 276 294 312 302 267 256 255 196 314 161 138 80 169 242 309 177 185 206 58 335 342 296 199 21
318 315 312 308 304 301 297 295 294 293 289 261 237 214 205 248 268 237 239 306 313 317 292 292 335 318 346 338 63 27 44 325 90 165 140 141 163 231 216 171 102 350 321 297 184 153 344
324 321 318 312 307 303 302 298 296 295 294 265 261 209 191 240 276 230 246 268 267 251 283 331 299 2 352 30 8 22 3 27 328 31 2 75 173 150 213 174 154 353 63 149 356 345 343
330 330 327 322 315 309 305 301 296 290 291 281 221 208 211 247 281 266 266 265 242 257 288 294 315 299 357 357 4 329 6 358 353 77 2 72 18 56 6 90 84 58 72 38 14 357 352